Location: *
(44.5281°S, 175.7074°W)
Time: 05:14:51
(UTC+00:00)

Daily predictions for brighter satellites

Satellite Brightness Start Highest point End
(mag) Time Altitude Azimuth Time Altitude Azimuth Time Altitude Azimuth
STARLINK-1302 3.8 04:41:16 10° NW 04:45:25 64° NE 04:49:36 10° ESE
Cosmos 1805 Rocket 4.3 04:42:00 10° NNE 04:45:57 34° E 04:50:01 10° SSE
STARLINK-22 4.0 04:43:47 10° W 04:46:52 36° SSW 04:49:58 10° SE
STARLINK-1273 3.8 04:46:14 10° NW 04:50:24 69° NE 04:54:36 10° ESE
Cosmos 2123 Rocket 4.0 04:44:42 10° S 04:50:57 64° E 04:57:08 10° NNE
STARLINK-80 4.3 04:48:50 10° W 04:52:30 40° SSW 04:56:11 10° SE
Cosmos 1538 Rocket 4.3 04:48:17 10° NNW 04:53:30 75° WSW 04:58:46 10° SSE
Cosmos 1812 3.8 04:50:40 10° SSE 04:53:56 25° ESE 04:57:11 10° NE
COSMOS 2428 3.0 04:48:38 10° N 04:54:11 51° ENE 04:59:47 10° SE
USA 234 3.6 04:48:05 10° SE 04:54:39 67° SSW 05:01:10 10° WNW
STARLINK-1326 4.5 04:52:36 10° SW 04:55:10 21° SSE 04:57:35 11° ESE
STARLINK-1288 3.7 04:51:09 10° NW 04:55:20 75° NE 04:59:32 10° ESE
STARLINK-1323 4.5 04:52:55 10° SW 04:55:29 21° SSE 04:57:53 11° ESE
Cosmos 1461 3.9 04:52:23 10° SSW 04:55:38 23° SE 04:58:49 10° E
STARLINK-1349 4.5 04:53:18 10° SW 04:55:52 21° SSE 04:58:15 11° ESE
STARLINK-1336 4.5 04:53:37 10° SW 04:56:10 21° SSE 04:58:33 11° ESE
STARLINK-1331 4.5 04:54:00 10° SW 04:56:33 21° SSE 04:58:55 11° ESE
STARLINK-1344 4.5 04:54:20 10° SW 04:56:54 22° SSE 04:59:15 11° ESE
STARLINK-1343 4.5 04:54:37 10° SW 04:57:12 22° SSE 04:59:31 11° ESE
ADEOS Rocket 3.7 04:49:52 10° NNE 04:57:28 89° WNW 05:05:25 10° SSW
STARLINK-1346 4.5 04:55:03 10° SW 04:57:35 21° SSE 04:59:51 11° ESE
STARLINK-1328 4.5 04:55:18 10° SW 04:57:52 22° SSE 05:00:11 11° ESE
STARLINK-1354 4.5 04:55:37 10° SW 04:58:12 22° SSE 05:00:29 12° ESE
STARLINK-1347 4.5 04:55:59 10° SW 04:58:34 22° SSE 05:00:51 12° ESE
STARLINK-1357 4.5 04:56:19 10° SW 04:58:55 22° SSE 05:01:09 12° ESE
STARLINK-1335 4.5 04:56:43 10° SW 04:59:18 22° SSE 05:01:32 12° ESE
STARLINK-1327 4.5 04:56:58 10° SW 04:59:34 22° SSE 05:01:48 12° ESE
ATLAS 5 CENTAUR R/B 3.8 04:54:14 10° NNE 04:59:45 24° ENE 05:04:51 11° ESE
STARLINK-1340 4.5 04:57:19 10° SW 04:59:55 22° SSE 05:02:08 12° ESE
STARLINK-1356 4.4 04:57:40 10° SW 05:00:16 22° SSE 05:02:27 12° ESE
STARLINK-1308 3.7 04:56:09 10° NW 05:00:21 82° NNE 05:04:21 11° ESE
STARLINK-1345 4.4 04:58:00 10° SW 05:00:36 22° SSE 05:02:47 12° ESE
STARLINK-1355 4.4 04:58:20 10° SW 05:00:56 22° SSE 05:03:06 12° ESE
Cosmos 1535 Rocket 4.5 04:55:02 10° N 05:01:15 75° E 05:07:28 10° SSE
STARLINK-1321 4.4 04:58:42 10° SW 05:01:18 22° SSE 05:03:27 12° ESE
STARLINK-1358 4.4 04:59:01 10° SW 05:01:37 22° SSE 05:03:45 13° ESE
STARLINK-1332 4.4 04:59:24 10° SW 05:02:01 22° SSE 05:04:08 13° ESE
STARLINK-1348 4.4 04:59:42 10° SW 05:02:19 22° SSE 05:04:25 13° ESE
Meteor 1-31 Rocket 4.0 04:58:44 10° S 05:02:35 44° WSW 05:06:21 10° NW
STARLINK-1311 4.3 04:59:56 10° W 05:02:37 27° SSW 05:05:12 11° SE
STARLINK-1330 4.4 05:00:01 10° SW 05:02:38 22° SSE 05:04:43 13° ESE
STARLINK-60 2.9 04:59:39 10° SW 05:02:57 83° SE 05:06:12 10° ENE
STARLINK-1363 4.4 05:00:25 10° SW 05:03:02 22° SSE 05:05:07 13° ESE
STARLINK-1337 4.4 05:00:42 10° SW 05:03:20 22° SSE 05:05:23 13° ESE
STARLINK-1342 4.4 05:01:02 10° SW 05:03:40 22° SSE 05:05:42 13° ESE
STARLINK-1364 4.4 05:01:22 10° SW 05:03:59 23° SSE 05:06:01 13° ESE
STARLINK-1376 4.4 05:01:44 10° SW 05:04:22 23° SSE 05:06:22 13° ESE
STARLINK-1360 4.4 05:02:03 10° SW 05:04:41 23° SSE 05:06:40 14° ESE
STARLINK-1361 4.4 05:02:22 10° SW 05:05:01 23° SSE 05:06:59 14° ESE
COSMO-SKYMED 1 2.9 05:00:50 10° N 05:05:12 76° WNW 05:09:39 10° SSW
STARLINK-1367 4.4 05:02:45 10° SW 05:05:21 23° SSE 05:07:16 14° ESE
STARLINK-1366 4.4 05:03:07 10° SW 05:05:45 23° SSE 05:07:42 14° ESE
Cosmos 2237 Rocket 3.3 05:02:09 10° NNE 05:06:43 25° ENE 05:11:03 11° SE
STARLINK-61 3.6 05:03:08 10° NW 05:07:05 66° NE 05:10:27 14° ESE
CZ-4B R/B 3.9 05:02:34 10° SSE 05:07:33 34° E 05:12:34 10° NNE
STARLINK-1316 4.3 05:05:53 10° W 05:08:44 29° SSW 05:11:15 12° SE
Cosmos 1707 Rocket 4.1 05:05:07 10° S 05:09:19 37° ESE 05:13:25 10° NE
Iridium 96 2.4 05:07:48 10° S 05:09:33 77° E 05:11:17 10° N
SL-16 R/B 4.2 05:05:09 10° W 05:09:35 23° SW 05:14:02 10° S
STARLINK-1257 4.4 05:06:50 10° W 05:09:40 28° SSW 05:12:08 12° SE
Cosmos 1633 3.2 05:06:21 10° NNW 05:09:56 57° W 05:13:34 10° S
STARLINK-1304 3.7 05:06:05 10° WNW 05:10:18 87° SSW 05:13:54 14° SE
STARLINK-1256 4.4 05:07:44 10° W 05:10:34 28° SSW 05:13:00 13° SE
STARLINK-1213 4.4 05:08:39 10° W 05:11:28 28° SSW 05:13:52 13° SE
STARLINK-1263 4.4 05:09:33 10° W 05:12:23 28° SSW 05:14:44 13° SE
STARLINK-1286 3.7 05:08:21 10° WNW 05:12:35 81° SSW 05:16:08 15° SE
STARLINK-1259 4.4 05:10:28 10° W 05:13:17 27° SSW 05:15:35 13° SE
Meteor 2-20 Rocket 4.5 05:07:13 10° S 05:13:26 63° E 05:19:34 10° NNE
STARLINK-1265 4.4 05:11:01 10° W 05:13:48 27° SSW 05:16:03 13° SE
STARLINK-1285 4.4 05:11:22 10° W 05:14:11 27° SSW 05:16:27 13° SE
Cosmos 2228 Rocket 3.6 05:09:43 10° SSW 05:14:18 67° W 05:18:46 10° N
STARLINK-1268 4.4 05:12:01 10° W 05:14:48 27° SSW 05:17:02 13° SE
STARLINK-1296 4.5 05:13:14 10° W 05:16:01 27° SSW 05:18:13 14° SE
STARLINK-1362 4.5 05:12:47 10° SW 05:16:05 28° SSE 05:18:12 17° ESE
STARLINK-1365 4.5 05:13:01 10° SW 05:16:19 28° SSE 05:18:26 17° ESE
STARLINK-1260 4.5 05:14:09 10° W 05:16:55 26° SSW 05:19:04 14° SE
STARLINK-69 4.4 05:13:24 10° NNW 05:16:56 34° NE 05:19:23 17° E
STARLINK-1318 4.5 05:15:05 10° WSW 05:17:51 26° SSW 05:19:57 14° SE
USA 116 4.3 05:13:35 10° NNE 05:18:23 74° ESE 05:23:40 10° S
STARLINK-21 4.4 05:14:56 10° NNW 05:18:26 33° NE 05:20:47 17° E
STARLINK-1275 4.5 05:15:57 10° WSW 05:18:43 26° SSW 05:20:46 14° SSE
Cosmos 1371 Rocket 4.3 05:13:33 10° S 05:18:47 45° ESE 05:23:56 10° NE
STARLINK-1373 4.5 05:15:36 10° SW 05:18:54 28° SSE 05:20:51 18° ESE
Cosmos 1934 Rocket 4.2 05:13:50 10° NNW 05:20:12 79° W 05:26:42 10° S
STARLINK-45 4.2 05:16:38 10° NNW 05:20:14 37° NE 05:22:35 18° E
STARLINK-1390 4.4 05:18:16 10° SW 05:21:34 29° SSE 05:23:23 19° ESE
STARLINK-70 4.2 05:18:13 10° NNW 05:21:49 37° NE 05:24:06 19° E
STARLINK-62 4.3 05:18:56 10° W 05:21:52 30° SSW 05:23:57 16° SE
SL-16 R/B 4.0 05:20:36 10° ENE 05:22:28 12° E 05:22:28 12° E
STARLINK-1029 4.1 05:20:15 10° W 05:23:13 35° SSW 05:25:14 17° SE
STARLINK-76 4.3 05:19:46 10° NNW 05:23:21 36° NE 05:25:32 20° E
STARLINK-71 4.3 05:19:42 10° NNW 05:23:31 40° NE 05:25:57 20° ESE
STARLINK-34 4.4 05:20:54 10° W 05:23:50 30° SSW 05:25:50 16° SSE
Cosmos 158 Rocket 4.1 05:19:14 10° N 05:24:19 60° ENE 05:29:36 10° SSE
STARLINK-23 4.2 05:21:23 10° NNW 05:24:59 37° NE 05:27:06 20° E
STARLINK-1299 4.0 05:22:16 10° WNW 05:26:33 61° SSW 05:29:38 18° SE
STARLINK-32 4.2 05:22:58 10° NNW 05:26:35 38° NE 05:28:40 21° E
Cosmos 2333 Rocket 2.4 05:20:57 10° NNW 05:26:45 78° WSW 05:32:35 10° SSE
STARLINK-1306 3.9 05:22:46 10° WNW 05:27:01 66° SSW 05:30:00 19° SE
Cosmos 405 2.9 05:23:58 10° S 05:27:34 83° E 05:31:07 10° NNE
Cosmos 2112 Rocket 4.0 05:22:33 10° N 05:27:49 65° ENE 05:33:06 10° SSE
STARLINK-40 4.1 05:24:38 10° NNW 05:28:17 40° NE 05:30:18 22° E
Okean O Rocket 1.8 05:24:48 10° SSE 05:29:09 49° E 05:33:28 10° N
H-2A R/B 3.0 05:25:47 10° SSE 05:29:36 49° E 05:33:23 10° N
STARLINK-44 4.1 05:26:12 10° NNW 05:29:51 41° NE 05:31:48 23° E
STARLINK-1281 3.9 05:26:02 10° WNW 05:30:14 66° SSW 05:33:02 20° SE
Meteor 1-10 Rocket 4.3 05:24:43 10° S 05:30:26 90° WNW 05:36:11 10° N
Cosmos 1605 Rocket 4.0 05:24:47 10° N 05:31:01 84° E 05:37:15 10° S
Cosmos 2278 Rocket 2.3 05:25:32 10° SSW 05:31:10 55° ESE 05:36:44 10° NE
STARLINK-37 3.9 05:27:57 10° NNW 05:31:41 45° NE 05:33:38 24° E
STARLINK-29 2.9 05:28:27 10° SW 05:31:47 74° SSE 05:34:00 19° ENE
STARLINK-1051 4.4 05:28:47 10° NNW 05:32:38 36° NE 05:34:37 23° E
STARLINK-36 4.0 05:29:25 10° NNW 05:33:06 43° NE 05:34:57 25° E
Sich 1 3.0 05:28:56 10° N 05:33:19 80° E 05:37:50 10° S
STARLINK-68 3.8 05:31:12 10° NW 05:34:56 49° NE 05:36:47 26° ESE
STARLINK-1310 3.9 05:31:03 10° WNW 05:35:14 61° SSW 05:37:49 22° SE
STARLINK-63 3.8 05:32:47 10° NW 05:36:32 49° NE 05:38:18 27° E
SMAP 3.6 05:32:36 11° SSE 05:36:51 39° E 05:41:14 10° NNE
STARLINK-35 3.8 05:34:18 10° NW 05:38:02 48° NE 05:39:43 28° E
STARLINK-51 3.8 05:35:59 10° NW 05:39:44 50° NE 05:41:22 29° E
STARLINK-1319 4.0 05:36:04 10° WNW 05:40:13 58° SSW 05:42:36 24° SE
Cosmos 1346 Rocket 4.0 05:37:02 10° NNW 05:40:50 43° WSW 05:44:43 10° S
STARLINK-30 3.8 05:37:35 10° NW 05:41:22 51° NE 05:42:55 30° E
STARLINK-1028 4.2 05:38:35 10° NNW 05:42:34 43° NE 05:44:12 29° E
STARLINK-72 3.7 05:39:17 10° NW 05:43:04 53° NE 05:44:35 32° E
Cosmos 2360 Rocket 4.1 05:39:25 10° WNW 05:44:07 26° SW 05:48:52 10° S
STARLINK-1277 4.1 05:41:04 10° WNW 05:45:12 54° SSW 05:47:22 26° SE
STARLINK-59 3.6 05:42:34 10° NW 05:46:24 59° NE 05:47:48 35° ESE
Cosmos 2056 Rocket 3.5 05:41:55 10° SSW 05:47:19 67° ESE 05:52:33 10° NNE
STARLINK-1021 4.0 05:43:29 10° NNW 05:47:31 47° NE 05:48:58 32° E
STARLINK-56 3.6 05:44:08 10° NW 05:47:57 58° NE 05:49:17 36° E
ATLAS 2AS CENTAUR R/B 3.6 05:43:44 10° SSW 05:49:10 27° SSE 05:51:06 24° ESE
STARLINK-73 3.6 05:45:46 10° NW 05:49:36 60° NE 05:50:52 38° E
STARLINK-1276 4.2 05:46:06 10° WNW 05:50:12 51° SSW 05:52:09 28° SE
STARLINK-38 3.5 05:47:24 10° NW 05:51:15 62° NE 05:52:27 39° ESE
NOAA 6 4.2 05:47:11 10° SSE 05:52:24 78° WSW 05:57:33 10° NNW
STARLINK-1019 3.9 05:48:25 10° NW 05:52:29 52° NE 05:53:46 37° E
STARLINK-24 3.6 05:48:46 10° NW 05:52:48 69° NE 05:54:10 39° ESE
STARLINK-65 3.5 05:49:03 10° NW 05:52:54 64° NE 05:54:03 41° ESE
CZ-2C R/B 3.6 05:53:39 27° ESE 05:53:39 27° ESE 05:57:46 10° S
STARLINK-53 3.4 05:50:56 10° NW 05:54:49 69° NE 05:55:57 43° ESE
STARLINK-1305 4.3 05:51:08 10° W 05:55:12 48° SSW 05:56:57 29° SSE
STARLINK-25 3.4 05:52:31 10° NW 05:56:16 65° NE 05:57:08 47° E
STARLINK-1012 3.8 05:53:20 10° NW 05:57:26 56° NE 05:58:32 42° E
Cosmos 1818 3.5 05:52:20 10° NNW 05:57:44 72° ENE 06:00:42 27° SE
STARLINK-64 4.5 05:54:34 10° W 05:57:52 32° SSW 05:58:52 27° SSE
Cosmos 1666 Rocket 3.6 05:55:26 10° NNW 05:59:50 79° W 06:04:16 10° S
STARLINK-1262 4.4 05:56:09 10° W 06:00:13 45° SSW 06:01:44 31° SSE
Shenzhou-11 Module 2.4 05:59:02 10° WNW 06:01:12 47° NNW 06:01:12 47° NNW
Cosmos 1633 Rocket 3.0 05:57:29 10° N 06:01:57 90° E 06:06:29 10° S
YAOGAN 6 2.7 06:03:03 53° E 06:03:18 54° E 06:06:55 10° N
BREEZE-M DEB (TANK) 4.0 05:59:54 10° WSW 06:04:04 76° NNW 06:20:56 10° NE
STARLINK-1300 4.4 06:01:09 10° W 06:05:11 43° SSW 06:06:29 33° SSE
Meteor 1-25 Rocket 4.5 06:00:32 10° NNE 06:05:47 44° E 06:07:53 31° SE
Centaur D AC-29 3.9 05:59:58 10° NW 06:05:55 16° NNW 06:09:05 10° NNE
Cosmos 2219 Rocket 3.3 06:01:58 10° NW 06:07:22 42° WSW 06:12:49 10° SSE
STARLINK-1026 3.6 06:03:13 10° NW 06:07:22 67° NE 06:08:07 54° E
Cosmos 2100 Rocket 3.9 06:01:37 10° N 06:07:46 66° E 06:13:56 10° SSE
STARLINK-52 3.4 06:04:41 10° WSW 06:07:57 61° NW 06:08:30 50° N
Cosmos 1680 Rocket 4.4 06:03:33 10° NW 06:08:42 50° WSW 06:13:53 10° SSE
STARLINK-50 3.4 06:04:52 10° NW 06:08:57 84° NE 06:09:41 59° ESE
STARLINK-1338 3.8 06:06:55 10° SW 06:10:05 45° S 06:10:05 45° S
STARLINK-1013 3.5 06:08:08 10° NW 06:12:18 73° NE 06:12:52 62° E
FALCON 9 DEB 3.1 06:09:16 10° WSW 06:12:49 85° NW 06:12:55 83° N
STARLINK-1371 3.9 06:12:22 10° SW 06:15:21 45° S 06:15:21 45° S
STARLINK-1009 3.5 06:13:05 10° NW 06:17:17 79° NE 06:17:39 71° E
Cosmos 1452 Rocket 3.8 06:12:36 10° S 06:17:29 45° SE 06:17:29 45° SE
STARLINK-1341 3.9 06:15:06 10° SW 06:18:03 45° SSW 06:18:03 45° SSW
SL-4 R/B 4.2 06:17:15 10° W 06:20:15 22° NW 06:23:25 10° N
Cosmos 1420 Rocket 3.9 06:15:46 10° SSW 06:21:10 69° ESE 06:24:07 27° NE
STARLINK-1374 4.0 06:17:39 10° SW 06:20:30 44° SSW 06:20:30 44° SSW
Cosmos 1980 3.8 06:16:32 10° NNW 06:22:14 78° WSW 06:25:38 26° SSE
STARLINK-1015 3.5 06:18:04 10° NW 06:22:16 85° NE 06:22:26 81° E
CZ-4C R/B 4.4 06:20:08 10° SSW 06:23:12 13° S 06:24:38 12° SSE
STARLINK-1339 4.1 06:20:24 10° SW 06:23:10 43° SSW 06:23:10 43° SSW
Cosmos 2061 Rocket 4.0 06:18:27 10° NNE 06:24:35 57° E 06:28:12 25° SSE
Cosmos 1238 Rocket 3.6 06:20:31 10° NNW 06:25:00 54° W 06:27:18 22° S
Envisat 3.1 06:21:20 13° S 06:26:00 79° WSW 06:31:07 10° NNW
STARLINK-1377 4.2 06:22:35 10° SW 06:25:11 41° SSW 06:25:11 41° SSW
STARLINK-1016 3.5 06:23:02 10° NW 06:27:13 89° WSW 06:27:13 89° WSW
STARLINK-1353 4.3 06:25:16 10° SW 06:27:47 39° SW 06:27:47 39° SW
Meteor 1-20 Rocket 4.1 06:23:47 10° N 06:29:30 72° E 06:32:30 30° SSE
Feng Yun 1-1 Rocket 4.0 06:27:58 40° SSE 06:29:58 71° ENE 06:35:26 10° N
NOSS 0 Rocket 4.4 06:24:52 10° NW 06:31:04 61° WSW 06:35:22 21° SSE
Cosmos 2297 4.0 06:25:43 10° SSW 06:30:33 46° SE 06:30:33 46° SE
STARLINK-1375 4.4 06:28:24 10° SW 06:30:53 38° SW 06:30:53 38° SW
STARLINK-1008 3.7 06:28:01 10° WNW 06:32:01 78° W 06:32:01 78° W
Helios 1A Rocket 2.9 06:33:10 80° W 06:33:10 80° W 06:37:12 10° NNW
STARLINK-81 3.9 06:30:07 10° WNW 06:33:34 61° WSW 06:33:34 61° WSW
Cosmos 1461 4.0 06:31:08 10° SW 06:34:52 40° WNW 06:36:31 26° N
Cosmos 2016 Rocket 3.9 06:28:51 10° N 06:35:04 68° E 06:39:15 23° SSE
STARLINK-54 4.0 06:31:47 10° WNW 06:35:11 56° WSW 06:35:11 56° WSW
Cosmos 1864 Rocket 4.4 06:29:57 10° N 06:35:58 57° E 06:36:18 56° E
Cosmos 2173 Rocket 4.0 06:30:38 10° N 06:36:57 82° W 06:43:15 10° S
USA 234 4.3 06:34:22 26° SSE 06:36:59 34° SSW 06:42:48 10° WSW
STARLINK-77 4.0 06:33:12 10° WNW 06:36:31 56° WSW 06:36:31 56° WSW
STARLINK-1014 3.9 06:33:00 10° WNW 06:36:51 70° W 06:36:51 70° W
COSMOS 2428 4.4 06:33:45 10° WNW 06:38:43 29° SW 06:43:22 12° S
STARLINK-1010 4.0 06:36:33 10° WNW 06:40:25 64° WSW 06:40:25 64° WSW
Lacrosse 5 rocket 2.3 06:37:16 10° NNW 06:40:18 42° N 06:40:18 42° N
DMSP B5D2-2 4.4 06:42:44 53° SSE 06:42:44 53° SSE 06:46:50 10° S
STARLINK-79 4.3 06:38:08 10° WNW 06:41:14 48° W 06:41:14 48° W
STARLINK-1025 4.1 06:38:01 10° WNW 06:41:36 60° W 06:41:36 60° W
STARLINK-78 4.4 06:39:45 10° WNW 06:42:46 46° W 06:42:46 46° W
ATLAS 5 CENTAUR R/B 2.7 06:36:52 10° NW 06:44:05 80° SW 06:46:25 45° SSE
Cosmos 1459 Rocket 4.1 06:37:53 10° NNW 06:44:06 73° W 06:50:31 10° S
Cosmos 1816 Rocket 4.4 06:38:57 10° S 06:45:20 65° E 06:45:21 65° E
STARLINK-1017 4.4 06:42:58 10° WNW 06:46:21 52° W 06:46:21 52° W
SL-24 R/B - RUBIN 2 3.9 06:43:56 10° NW 06:48:23 68° NW 06:48:23 68° NW
Cosmos 1470 Rocket 4.3 06:44:41 10° NNW 06:49:06 52° WSW 06:50:24 39° SSW
Cosmos 371 Rocket 4.1 06:44:22 10° SSW 06:47:37 42° SSW 06:47:37 42° SSW
Cosmos 2237 Rocket 2.9 06:44:54 10° NW 06:50:25 51° WSW 06:52:55 31° S
Cosmos 1943 Rocket 3.9 06:47:11 10° S 06:48:59 19° S 06:48:59 19° S
Cosmos 2369 Rocket 4.2 06:49:06 10° S 06:50:30 16° S 06:50:30 16° S
ATLAS CENTAUR R/B 4.1 06:54:07 10° SSW 06:54:46 13° SSW 06:54:46 13° SSW
BREEZE-M DEB (TANK) 4.2 06:44:17 10° NW 06:59:23 66° NNE 06:59:38 65° NE
Okean O Rocket 4.2 07:02:01 10° SSW 07:05:08 19° WSW 07:08:15 10° WNW
SL-16 R/B 2.7 07:00:11 10° NNW 07:04:24 52° NNW 07:04:24 52° NNW
BREEZE M DEB (TANK) 3.9 06:51:23 10° WSW 07:12:37 83° SSE 07:13:12 76° E
Cosmos 1725 Rocket 4.0 07:07:06 10° NNW 07:13:25 78° W 07:13:48 75° SW
NOSS 3-4 (A) 3.9 07:07:23 10° SW 07:13:17 56° S 07:13:17 56° S
NOSS 3-4 (C) 4.0 07:07:29 10° SW 07:13:20 55° S 07:13:20 55° S
Cosmos 2278 Rocket 4.4 07:10:24 10° SW 07:14:50 24° W 07:19:14 10° NNW
CZ-2C R/B 4.0 07:35:10 34° SW 07:35:10 34° SW 07:38:34 10° SSW
ATLAS 2AS CENTAUR R/B 3.4 07:34:10 10° SW 07:38:34 46° SW 07:38:34 46° SW
